Theta_e
320 320 328 334 332 331 341 344 341 345 346 344 351 353 354 355 353 354 339 345 345 334 335 334 332 329 328 327 326 325 325 325 325 325 325 325 324 324 324 325 325 325 325 325 326 327 328 327 328
320 322 328 329 330 332 341 341 340 344 342 349 351 351 352 357 350 351 346 351 340 336 336 334 332 331 331 330 329 329 328 329 329 329 329 329 329 328 327 325 325 325 325 325 325 325 326 326 326
321 329 328 326 329 331 340 340 338 338 342 349 349 349 347 350 355 353 353 352 351 337 336 335 334 334 334 333 333 333 333 334 334 335 336 336 336 335 335 334 334 334 332 331 328 327 326 326 326
323 328 329 328 330 337 341 341 337 336 337 340 347 350 349 347 353 354 354 354 351 338 337 336 336 337 337 337 338 338 338 339 339 340 341 342 343 343 342 341 341 340 339 339 338 337 335 331 328
323 326 323 329 334 336 339 338 334 334 333 343 348 350 351 348 349 353 351 348 342 338 338 339 339 340 342 342 342 342 343 342 339 335 331 332 331 329 334 332 333 332 332 334 339 340 339 340 339
321 326 324 326 335 337 337 337 335 337 335 345 346 350 350 348 347 351 350 346 341 341 340 342 343 341 333 324 321 319 318 316 315 318 323 323 323 327 324 326 324 322 321 321 319 317 317 320 326
321 321 323 325 335 336 340 337 333 333 332 340 333 350 348 347 348 351 348 340 328 342 341 333 330 319 317 315 316 318 317 318 320 322 323 325 328 330 328 329 328 327 328 327 326 323 327 329 330
321 323 324 326 331 335 338 338 334 332 329 335 345 346 348 350 347 348 346 346 346 348 335 334 329 326 326 325 326 326 326 324 323 322 319 319 324 324 325 327 328 326 328 327 324 329 329 330 331
325 322 325 325 329 335 337 336 335 331 332 343 344 343 348 342 338 346 347 347 344 347 339 334 328 327 328 328 328 328 327 328 326 323 320 317 315 315 317 319 317 323 326 323 327 328 328 329 330
324 321 323 325 327 329 336 334 332 331 340 343 342 342 340 336 335 338 340 337 333 331 329 332 330 328 330 330 328 326 326 326 324 322 319 318 315 314 313 312 312 312 314 320 324 325 325 328 331
323 322 323 326 325 325 334 333 331 330 327 342 341 338 336 336 334 337 336 334 331 330 328 327 327 328 328 327 327 327 325 321 323 319 317 316 316 315 315 314 313 313 316 317 317 320 321 323 326
320 324 326 326 325 325 325 334 328 325 329 337 337 335 335 334 333 332 330 330 330 329 328 328 328 328 327 326 321 320 319 317 322 321 319 317 318 318 317 315 314 314 315 316 319 321 317 314 319
322 323 325 325 325 325 325 326 324 324 333 335 335 333 333 331 331 330 330 330 331 331 330 327 323 321 320 317 318 318 319 320 322 322 322 322 322 322 321 318 316 316 318 315 315 318 313 316 319
325 325 325 325 325 325 324 323 326 325 325 331 333 333 332 331 331 331 331 331 331 332 331 321 320 320 318 316 319 317 319 322 323 322 322 323 323 322 321 321 321 319 317 317 317 317 316 321 321
325 322 321 324 325 323 325 322 324 325 324 326 329 330 332 332 332 332 332 332 332 333 328 328 327 320 318 316 319 323 321 323 322 321 322 322 322 320 321 320 322 321 320 321 319 318 318 319 320
322 321 319 320 322 323 322 319 322 326 324 324 325 326 333 333 333 333 332 333 334 333 330 331 329 319 319 319 323 323 321 322 321 320 320 319 319 321 322 322 320 322 321 320 319 319 315 318 316
321 318 318 319 321 320 319 320 324 324 323 322 323 324 330 333 333 332 333 333 334 333 329 328 328 318 323 322 323 321 321 319 318 315 316 321 322 321 318 317 319 321 320 318 316 314 313 314 315
318 319 319 322 321 321 319 320 324 325 325 325 325 324 332 333 333 333 333 334 334 334 332 330 325 319 323 322 320 319 319 317 315 317 319 320 318 317 317 317 316 315 314 313 313 316 317 315 312
321 321 321 324 324 324 322 321 325 326 326 326 325 325 330 333 332 333 334 334 334 334 332 331 326 324 319 321 319 320 318 316 316 316 317 315 314 318 317 316 315 314 313 314 315 316 314 313 313
319 319 319 323 325 324 324 324 323 326 326 327 327 326 329 333 332 333 334 334 334 333 331 328 326 324 321 321 319 318 317 316 314 312 309 309 310 311 313 313 315 315 314 313 312 312 311 312 313
320 321 323 323 326 325 325 324 323 323 326 328 327 326 333 333 333 333 333 333 333 330 328 325 324 323 322 321 320 319 318 317 315 311 310 309 310 311 311 312 312 312 312 312 312 311 311 311 312
324 323 324 324 323 322 324 320 322 326 324 326 327 329 333 333 333 333 333 333 331 326 324 323 323 323 322 320 319 318 316 315 315 312 311 310 310 311 309 310 310 310 310 311 310 311 312 312 312
324 323 322 323 320 321 322 324 326 325 327 329 328 329 333 333 333 334 332 330 330 326 323 323 323 322 321 319 318 316 316 315 314 312 312 312 311 310 309 309 308 308 309 309 311 312 311 312 312
324 322 322 322 320 320 328 330 328 329 330 330 328 329 331 332 332 332 330 327 325 323 322 323 322 320 319 318 318 317 315 313 313 313 312 309 308 309 309 308 309 309 310 311 310 311 311 311 312
323 324 326 328 325 328 329 331 330 326 325 326 327 329 330 329 329 327 325 324 323 322 321 321 320 319 319 319 317 315 314 313 312 312 309 307 309 309 308 309 308 308 309 310 309 310 309 310 310
323 325 326 330 329 328 329 329 326 324 324 324 325 328 328 327 326 325 324 322 322 322 322 321 321 318 318 318 316 315 313 312 311 309 308 309 308 308 308 309 307 308 308 308 308 309 309 310 310
324 322 325 326 326 324 326 330 327 325 324 324 324 323 322 322 321 321 320 320 320 320 319 318 317 317 318 317 316 315 313 313 310 307 308 307 307 308 308 307 306 306 306 307 307 308 308 309 309
325 322 323 324 328 330 328 331 332 325 322 321 320 321 321 320 319 318 317 317 316 316 316 316 316 316 316 315 314 313 312 309 308 309 307 307 307 307 307 305 305 306 306 307 307 307 307 307 308
326 326 327 327 326 327 329 328 323 322 321 320 320 320 319 318 317 316 315 314 313 313 313 313 314 314 314 312 311 311 308 307 307 308 307 305 305 305 304 305 306 306 306 306 306 306 306 306 306
327 328 326 324 326 326 325 324 323 319 321 321 320 319 318 317 316 314 313 312 312 312 311 311 310 310 310 310 309 307 306 306 306 306 306 306 305 305 304 306 307 307 307 306 305 306 306 307 307
Wind_Speed
20 20 12 11 4 5 1 7 6 4 6 28 31 24 24 19 5 7 16 16 13 14 14 14 15 17 17 17 17 17 17 16 15 14 14 14 13 12 11 10 9 8 7 5 4 3 4 5 6
19 16 6 5 3 3 3 2 4 13 6 5 33 32 29 21 26 22 25 17 14 15 14 15 15 16 16 17 16 15 15 16 14 14 14 14 13 13 12 12 11 10 9 8 7 6 6 7 8
19 11 4 3 2 4 5 4 4 13 18 19 19 21 14 12 16 19 23 17 13 14 15 15 14 15 15 14 14 14 15 15 14 14 14 14 13 13 12 12 11 11 10 10 9 10 10 10 11
10 4 5 2 6 18 10 10 4 6 21 17 14 14 27 21 18 25 28 22 9 14 14 15 14 14 13 13 13 13 14 14 14 13 13 13 13 13 13 12 11 11 12 12 13 12 12 12 13
9 5 2 4 3 7 10 8 18 9 6 17 26 11 15 15 19 21 20 14 17 15 14 15 14 14 13 13 12 13 13 13 14 14 13 14 14 13 12 12 12 13 13 14 14 15 16 17 17
6 3 3 6 3 12 4 19 13 15 11 23 14 19 14 15 23 23 21 23 17 10 12 14 14 14 14 14 14 15 15 15 16 16 15 14 15 14 14 14 13 17 17 16 16 16 18 19 20
8 1 6 11 7 3 11 15 7 17 18 11 19 11 22 7 17 24 16 12 18 17 17 19 16 16 16 19 20 19 18 18 16 14 12 13 11 12 13 14 16 17 17 18 21 20 17 18 18
21 3 9 12 3 8 13 22 18 24 6 21 26 5 16 25 26 25 22 21 21 19 19 16 16 16 16 16 17 16 17 15 13 14 13 12 8 10 10 11 12 14 16 19 20 18 20 19 20
18 2 9 13 7 18 29 18 32 12 13 22 14 27 27 23 26 27 26 24 22 18 17 15 15 15 16 17 17 15 14 13 14 14 13 12 13 14 13 11 13 15 16 15 14 16 16 17 19
4 3 9 10 4 5 34 24 18 10 26 25 28 24 20 22 14 25 33 33 31 27 23 22 15 15 13 17 15 10 5 5 9 14 15 15 18 17 17 19 18 17 15 16 18 20 21 19 20
19 8 11 15 17 17 23 13 20 15 7 30 30 23 19 14 16 27 27 28 29 23 22 19 19 21 19 17 11 3 3 7 6 13 19 19 17 20 22 22 22 22 19 20 21 22 23 25 27
8 23 23 6 13 12 1 12 14 20 17 27 26 22 19 12 29 34 33 28 23 18 17 18 17 16 11 8 4 4 7 9 9 15 19 21 22 26 27 27 25 21 19 23 26 26 28 23 22
7 7 13 7 8 9 10 15 13 19 30 25 24 22 16 20 31 30 29 26 24 21 17 13 10 9 5 5 5 7 10 7 8 13 16 21 23 22 27 31 26 19 18 22 27 27 30 28 27
4 8 6 1 4 10 4 1 17 16 18 25 22 21 16 26 28 28 25 23 19 15 10 10 7 5 6 7 6 7 11 8 9 11 16 16 17 21 23 22 23 23 22 25 25 27 26 27 32
16 6 7 4 6 5 4 8 6 22 19 18 15 11 19 26 23 21 18 17 13 8 8 5 2 3 7 8 8 8 10 7 6 10 13 18 22 27 24 25 22 24 23 21 23 22 24 27 32
5 6 5 8 11 8 12 7 7 18 16 13 19 15 23 25 23 21 20 17 12 8 11 9 2 3 6 8 8 4 3 3 7 11 11 17 21 19 20 20 24 22 20 24 28 24 33 32 35
5 6 8 10 13 7 7 5 9 17 16 14 15 19 21 29 30 27 23 19 15 14 12 10 5 2 6 2 1 2 4 8 12 15 14 14 13 16 24 28 21 22 27 31 34 38 34 33 33
9 5 8 8 7 9 7 8 8 20 18 12 9 18 28 34 33 30 25 22 17 14 8 4 5 1 3 3 4 5 8 13 17 16 15 16 23 28 26 27 30 34 39 37 37 25 23 29 34
7 5 8 7 6 5 7 5 8 19 15 15 17 17 24 36 34 29 25 20 15 10 5 5 9 5 5 7 8 11 16 21 20 20 21 26 25 22 30 34 37 39 37 34 32 32 37 40 38
8 8 9 3 5 4 6 5 6 9 18 22 19 18 20 38 33 28 24 18 13 11 8 6 9 8 9 9 11 14 19 26 31 36 37 34 32 28 31 33 30 27 30 33 36 36 37 32 32
6 4 6 6 4 4 3 5 8 10 13 24 13 6 34 38 34 28 23 18 15 11 8 8 8 10 10 14 18 21 26 32 37 37 39 33 30 30 34 34 37 37 36 33 32 34 36 33 30
5 8 9 11 8 2 3 5 4 13 11 7 11 14 33 34 30 25 22 19 15 8 3 7 9 7 8 13 17 22 27 33 36 35 36 32 34 33 41 33 34 33 33 34 34 30 27 27 28
5 8 7 6 8 6 10 5 6 11 10 16 19 14 28 26 24 28 27 23 8 5 9 10 6 6 7 11 17 23 23 27 29 30 30 29 40 38 34 32 31 29 27 26 25 25 25 24 24
5 7 8 6 2 4 4 5 5 7 5 5 29 13 17 22 24 16 6 4 10 4 8 7 2 1 9 14 22 28 21 23 27 26 31 41 40 31 30 31 27 27 23 22 24 22 21 20 18
7 4 4 5 5 4 5 5 3 4 11 12 7 1 31 21 16 13 9 6 10 9 5 3 5 9 25 28 17 13 13 18 19 28 39 40 32 30 30 27 28 26 23 23 23 20 21 17 16
6 1 4 2 3 4 3 2 4 1 17 23 26 27 21 14 6 7 9 8 7 11 10 10 17 16 15 13 13 15 16 20 26 35 33 29 28 30 27 27 26 22 23 24 24 21 19 18 16
6 5 3 1 4 3 4 6 8 7 4 14 23 25 23 20 17 15 16 17 13 11 16 18 17 17 11 13 15 17 21 27 37 34 26 27 26 24 24 25 24 23 23 21 20 19 17 16 16
5 4 6 4 3 3 4 3 1 6 8 9 15 18 17 18 21 23 24 21 19 17 13 12 12 14 13 15 18 23 27 34 33 22 25 24 24 24 22 23 20 19 16 16 16 17 16 17 16
5 5 7 3 3 4 1 3 7 7 6 8 13 16 17 18 21 25 25 22 17 14 14 14 14 14 15 16 20 24 30 28 21 23 22 20 22 22 17 14 14 12 15 17 18 17 16 16 16
2 3 2 5 5 1 4 4 2 9 11 14 13 13 15 17 19 20 20 18 19 22 24 26 28 26 23 23 25 32 30 21 20 16 12 17 21 18 12 10 15 17 19 19 21 20 18 13 16
Wind_Direction
322 336 345 338 32 79 16 63 116 115 328 238 78 82 78 63 63 141 126 141 117 108 103 98 93 91 89 87 85 85 84 80 78 76 72 68 63 61 58 55 49 44 42 35 18 350 321 303 290
323 344 327 295 77 6 279 163 4 155 120 20 83 87 74 91 99 122 124 125 113 116 113 106 101 96 96 94 93 89 87 84 77 71 66 61 56 52 50 47 41 32 23 13 1 340 316 299 291
329 333 312 155 192 242 156 290 36 318 36 87 67 75 78 91 104 127 127 119 104 112 110 106 98 93 88 85 84 84 81 76 71 65 60 54 50 45 42 39 33 26 16 5 351 339 326 312 300
326 327 264 74 14 22 358 127 87 313 48 357 93 59 83 105 116 132 129 137 144 125 112 104 96 87 85 83 79 76 75 71 68 62 56 49 43 38 33 28 21 8 1 352 343 333 322 313 306
318 269 319 307 198 111 8 348 114 77 8 45 87 105 105 101 128 132 134 117 111 110 109 105 98 97 89 80 78 77 74 71 66 61 55 51 44 37 34 20 8 0 350 340 332 326 322 318 311
286 298 330 292 57 99 70 282 132 136 183 106 88 132 118 103 127 137 137 108 94 83 103 94 91 88 85 82 77 74 74 72 73 67 60 53 47 40 33 18 13 3 355 347 339 331 324 317 310
238 359 252 277 160 89 133 229 214 165 194 189 144 119 87 117 134 154 137 134 127 123 99 86 86 78 79 82 78 74 73 71 69 62 53 49 45 36 22 11 3 358 345 341 339 340 337 329 322
256 164 288 280 201 179 162 195 192 173 186 148 125 106 141 153 140 135 103 104 101 117 83 82 86 71 67 75 64 59 52 44 55 41 34 42 35 24 4 5 347 334 332 335 338 330 324 326 324
272 317 267 271 320 108 165 196 203 176 123 107 144 115 134 130 125 119 112 108 102 116 106 110 102 75 67 69 69 64 52 35 12 9 21 24 6 2 356 343 328 327 315 310 320 318 309 306 307
250 221 261 275 320 142 162 176 179 155 117 116 116 125 136 141 151 145 131 125 128 131 124 128 146 117 108 93 87 88 80 56 349 351 4 10 2 7 1 353 343 335 331 317 301 295 298 297 303
248 228 256 286 29 7 140 142 157 162 116 131 134 145 152 171 169 149 138 140 137 143 150 150 152 150 136 134 136 178 2 46 358 354 356 356 359 355 356 352 345 338 344 327 320 313 310 300 295
237 246 249 290 50 356 290 173 135 92 139 141 139 149 155 170 133 138 135 137 144 156 161 150 139 151 155 170 173 77 38 28 15 352 347 347 349 347 347 347 346 339 326 322 320 320 321 310 303
213 239 293 71 58 316 1 115 118 100 125 136 144 148 163 134 134 136 140 142 147 154 154 169 164 144 116 79 73 43 41 49 13 343 343 344 343 336 335 340 344 341 311 314 313 313 318 321 315
288 233 264 57 66 292 37 60 108 123 117 131 140 154 158 143 136 135 141 141 147 149 145 151 147 117 68 66 76 46 31 59 16 350 347 341 332 333 338 331 328 332 318 315 306 309 316 321 311
302 6 324 174 196 198 96 338 125 146 147 144 147 164 153 141 143 142 150 152 163 136 118 95 131 57 56 49 63 41 56 46 352 339 344 339 336 337 332 328 319 326 319 313 314 315 307 302 302
1 355 299 270 201 166 129 251 310 152 146 151 164 181 149 153 149 152 157 159 155 147 130 144 250 33 51 65 69 70 9 348 326 335 331 331 334 336 335 324 331 324 314 309 312 305 313 298 298
298 239 249 261 211 154 120 216 151 154 160 175 188 185 164 145 148 152 155 154 151 147 171 196 247 20 88 87 130 328 332 333 349 347 357 340 332 321 315 317 315 309 308 312 313 312 308 304 308
257 245 271 266 212 131 164 209 173 172 175 182 194 191 156 152 151 153 152 152 154 156 177 226 275 34 149 260 309 331 342 349 354 6 339 323 317 319 319 311 312 313 315 314 314 316 316 311 312
279 343 306 21 72 129 202 206 192 184 187 188 198 208 169 160 151 153 154 155 156 165 205 269 283 303 303 343 344 337 346 348 351 341 333 322 319 317 319 320 315 313 312 314 315 310 309 309 314
343 339 314 314 168 74 36 344 327 185 197 198 204 220 160 148 149 150 149 155 169 182 187 248 276 290 311 318 325 331 337 341 342 341 345 336 328 323 318 316 316 313 311 309 309 313 314 309 309
312 325 353 328 106 148 201 302 272 275 210 199 183 107 154 152 150 150 153 164 179 183 188 224 264 289 297 308 314 322 328 335 338 341 342 344 338 329 322 313 308 311 313 312 312 315 315 313 311
6 12 15 356 15 303 62 274 354 351 314 94 89 92 143 150 153 160 162 164 165 152 228 247 272 277 288 299 314 330 336 337 335 331 333 332 331 320 324 319 313 313 311 308 312 316 314 315 315
294 34 356 334 328 4 345 34 308 32 4 3 339 90 136 141 153 158 152 152 186 191 259 250 236 264 262 306 329 332 331 331 330 327 327 322 323 319 325 322 322 322 318 317 322 320 320 318 314
339 349 348 335 321 346 128 67 295 334 171 115 281 210 144 127 122 123 113 139 172 238 223 172 187 187 321 325 325 320 326 326 324 325 322 326 323 330 330 327 327 327 328 325 325 321 322 325 323
2 34 350 350 1 257 135 151 225 67 76 57 6 61 86 83 96 105 127 156 162 143 122 72 17 354 326 315 324 338 322 319 316 319 327 323 326 329 327 327 327 326 327 325 325 318 324 323 319
323 213 156 295 321 279 115 152 249 78 76 68 71 72 79 87 87 50 71 57 16 334 318 319 315 329 326 307 305 305 302 314 328 330 327 324 326 324 322 325 326 327 322 324 320 313 320 322 325
309 331 233 205 297 18 144 354 8 327 42 58 72 77 69 61 55 40 22 17 22 20 8 2 350 336 318 296 292 294 303 318 328 329 323 321 324 326 323 325 323 322 320 325 326 326 324 325 320
265 219 12 2 30 339 352 111 221 60 46 59 59 51 53 52 48 60 69 57 46 40 23 3 354 349 325 310 309 313 319 326 331 335 334 328 326 322 322 327 326 329 333 337 342 340 338 332 320
12 348 43 314 154 182 292 220 149 126 80 54 52 62 53 45 50 60 56 45 42 33 16 3 347 332 322 314 314 318 329 331 327 324 337 343 337 332 333 332 349 4 15 6 350 347 346 341 337
59 13 259 134 280 90 152 279 126 96 83 71 64 56 51 57 57 52 45 26 5 352 344 340 332 327 322 321 320 325 329 330 336 342 346 355 359 2 0 12 359 343 1 349 340 334 338 331 338